Regional Weather Roundup
Issued by NWS Bismarck, ND

Home | Current Version | Previous Version | Text Only | Print | Product List | Glossary On
Versions: 1 2 3 4 5 6 7 8 9 10 11 12 13 14 15 16 17 18 19 20 21 22 23 24 25 26 27 28 29 30 31 32 33 34 35 36 37 38 39 40 41 42 43 44 45 46 47 48 49 50
000
ASUS43 KBIS 260910
RWRBIS

NWR BROADCAST TEXT
NATIONAL WEATHER SERVICE BISMARCK ND
400 AM CDT MON SEP 26 2016

NOTE: "FAIR" INDICATES FEW OR NO CLOUDS BELOW 12,000 FEET WITH NO
SIGNIFICANT WEATHER AND/OR OBSTRUCTIONS TO VISIBILITY.


CITY           SKY/WX    TMP DP  RH WIND       PRES   REMARKS
WILLISTON      CLEAR     41  33  73 CALM      30.20S
MINOT          CLEAR     50  34  54 W15       30.11S
MINOT AFB      CLEAR     46  35  64 NW10      30.09F
BISMARCK       CLEAR     41  34  76 W6        30.16F
DICKINSON      CLEAR     37  33  85 W7        30.19F
GARRISON         N/A     44  37  76 W9        30.14F
HETTINGER ARPT CLEAR     39  36  89 NW5       30.23F
JAMESTOWN      CLEAR     46  37  71 W13       30.05F
CARRINGTON     FAIR      46  36  66 W15       30.08S
HAZEN          FAIR      37  32  81 CALM      30.19F
LINTON         FAIR      36  36 100 W6        30.19S
MANDAN         FAIR      41  34  75 W10       30.17S
RUGBY          FAIR      41  37  87 W9        30.06S
STANLEY        FAIR      37  37 100 NW8       30.18S
WATFORD CITY   FAIR      37  34  87 CALM      30.20S
$$

CITY           SKY/WX    TMP DP  RH WIND       PRES   REMARKS
GRAND FORKS    PTCLDY    50  37  61 NW16      29.92F
GRAND FORKS AF CLEAR     51  36  57 NW15      29.93F
DEVILS LAKE    CLEAR     48  37  65 W17       30.02S
FARGO          CLEAR     50  37  61 W16       29.96F
CANDO          FAIR      43  36  75 W12       30.04S
CAVALIER       PTSUNNY   50  37  62 NW15G23   29.91F
GRAFTON        PTSUNNY   52  39  62 NW17G26   29.93F
GWINNER        FAIR      46  37  71 W14       30.05F
LANGDON        FAIR      45  37  76 W18G25    29.96S
ROLLA          FAIR      48  32  53 NW20G26   30.02S
WALHALLA       FAIR      48  46  93 NW16G24   29.93S
$$

CITY           SKY/WX    TMP DP  RH WIND       PRES   REMARKS
ABERDEEN       CLEAR     42  34  73 W10       30.13S
MOBRIDGE       CLEAR     45  36  70 NW8       30.17F
BUFFALO          N/A     43  37  79 W8        30.19F
RAPID CITY     CLEAR     41  34  76 NW6       30.28F
GLASGOW        CLEAR     43  36  76 VRB6      30.21S
SIDNEY         CLEAR     37  36  96 CALM      30.21S
WOLF POINT     CLEAR     39  37  92 CALM      30.22S
MILES CITY     CLEAR     44  41  89 S5        30.26S
BAKER          CLEAR     42  37  82 CALM      30.25F
$$

CITY           SKY/WX    TMP DP  RH WIND       PRES   REMARKS
BILLINGS       PTCLDY    54  42  64 W12       30.33S
GREAT FALLS    CLEAR     47  40  76 SW10      30.33S
REGINA         CLEAR     34  32  93 NW10      30.15F
$$





USA.gov is the U.S. government's official web portal to all federal, state and local government web resources and services.